This demonstration page uses our WeatherBlox Daily Observations layout. Learn more.

Left ArrowRight Arrow

Hourly Observations for October 6, 2022

Temp ( °F °C ) Dew Point ( °F °C ) Humidity (%) Winds ( mph kmh ) Pressure ( in mb ) Visibility ( mi km ) Precip ( " mm )
12:56 am 00:56 Clear 52 11.1 47 8.3 83 83 WNW 8 13 30.18 1022 10 16 0.00 0.00
1:56 am 01:56 Clear 51 10.6 46 7.8 83 83 WNW 7 11 30.18 1022 10 16 0.00 0.00
2:56 am 02:56 Clear 51 10.6 46 7.8 83 83 WNW 7 11 30.18 1022 10 16 0.00 0.00
3:56 am 03:56 Clear 49 9.4 45 7.2 86 86 WNW 6 9 30.19 1022 10 16 0.00 0.00
4:56 am 04:56 Clear 48 8.9 45 7.2 89 89 WNW 5 7 30.19 1022 10 16 0.00 0.00
5:56 am 05:56 Clear 47 8.3 44 6.7 90 90 NW 3 6 30.19 1023 10 16 0.00 0.00
6:56 am 06:56 Clear 48 8.9 44 6.7 86 86 WNW 7 11 30.21 1023 10 16 0.00 0.00
7:56 am 07:56 Sunny 48 8.9 44 6.7 86 86 WNW 7 11 30.23 1024 10 16 0.00 0.00
8:56 am 08:56 Sunny 52 11.1 47 8.3 83 83 NW 9 15 30.25 1024 10 16 0.00 0.00
9:56 am 09:56 Sunny 58 14.4 49 9.4 72 72 N 15 24 30.26 1025 10 16 0.00 0.00
10:56 am 10:56 Mostly Cloudy 61 16.1 51 10.6 70 70 N 18 30 30.28 1026 10 16 0.00 0.00
11:56 am 11:56 Sunny 60 15.6 51 10.6 72 72 N 17 28 30.30 1026 10 16 0.00 0.00
12:56 pm 12:56 Partly Cloudy 61 16.1 51 10.6 70 70 N 17 28 30.32 1027 10 16 0.00 0.00
1:56 pm 13:56 Mostly Sunny 61 16.1 50 10 67 67 N 17 28 30.32 1027 10 16 0.00 0.00
2:56 pm 14:56 Sunny 61 16.1 49 9.4 64 64 N 17 28 30.31 1026 10 16 0.00 0.00
3:56 pm 15:56 Sunny 62 16.7 48 8.9 60 60 NNE 18 30 30.31 1026 10 16 0.00 0.00
4:56 pm 16:56 Sunny 63 17.2 46 7.8 54 54 NNE 16 26 30.32 1027 10 16 0.00 0.00
5:56 pm 17:56 Sunny 62 16.7 44 6.7 52 52 NNE 16 26 30.32 1027 10 16 0.00 0.00
6:56 pm 18:56 Sunny 58 14.4 43 6.1 57 57 NNE 15 24 30.35 1028 10 16 0.00 0.00
7:56 pm 19:56 Clear 52 11.1 39 3.9 61 61 NNE 12 19 30.39 1029 10 16 0.00 0.00
8:56 pm 20:56 Clear 50 10 34 1.1 54 54 NNE 13 20 30.41 1030 10 16 0.00 0.00
9:56 pm 21:56 Clear 48 8.9 31 -0.6 51 51 NNE 15 24 30.42 1030 10 16 0.00 0.00
10:56 pm 22:56 Clear 46 7.8 30 -1.1 53 53 NNE 16 26 30.42 1030 10 16 0.00 0.00
11:56 pm 23:56 Clear 44 6.7 30 -1.1 57 57 NNE 9 15 30.45 1031 10 16 0.00 0.00

Powered by AerisWeather